Theta_e
304 304 304 304 305 305 305 305 306 308 315 316 315 314 313 316 316 317 324 322 321 323 331 331 330 334 335 338 338 339 340 334 334 339 341 339 340 342 347 351 349 345 349 350 349
304 304 304 305 305 305 305 306 306 307 315 316 315 313 312 316 323 325 322 319 317 322 333 328 329 329 335 339 337 337 336 333 333 335 339 339 340 343 345 350 347 347 348 348 349
304 304 304 305 305 305 305 306 307 308 315 314 313 312 312 316 328 326 322 320 316 323 330 328 329 331 338 336 335 337 335 333 331 335 338 339 342 343 344 349 347 351 350 349 349
303 304 304 305 305 305 305 307 308 309 315 313 312 312 314 326 334 335 326 319 315 327 330 325 330 333 337 336 335 335 333 332 331 333 338 340 341 341 342 347 346 348 348 349 350
303 303 304 304 305 305 305 306 308 311 316 314 313 313 319 329 331 335 325 315 318 330 324 326 329 335 336 335 335 334 332 332 331 331 338 338 340 345 349 347 347 347 348 349 348
303 303 304 304 305 305 306 307 311 318 317 314 314 314 327 331 334 332 324 319 323 325 324 326 329 336 336 335 335 333 333 331 331 333 336 339 340 345 351 349 348 347 347 347 347
303 303 304 304 305 305 306 307 317 318 316 315 314 321 330 331 332 326 323 322 323 323 325 325 332 334 335 335 334 333 334 331 332 334 337 339 341 347 351 350 350 348 347 346 346
303 304 304 304 305 305 306 308 315 315 315 316 316 327 333 328 330 322 321 322 323 324 325 328 332 334 335 335 334 334 334 331 332 334 335 339 342 348 351 352 351 349 347 347 347
303 304 304 304 305 306 307 312 315 315 316 316 327 330 330 329 329 324 323 323 323 324 325 329 330 334 335 335 335 333 334 334 331 334 334 339 342 346 348 351 352 352 350 349 348
303 304 304 305 305 306 307 319 321 318 321 326 328 332 332 332 329 325 324 324 325 325 327 329 330 334 335 335 336 333 334 333 332 332 333 336 343 345 346 348 349 352 352 352 352
303 303 304 305 305 306 310 326 334 334 331 332 328 327 332 332 328 325 324 325 325 326 327 329 329 332 334 334 334 335 333 332 333 332 332 334 341 343 346 347 347 349 351 352 354
303 303 304 305 305 307 318 330 329 325 329 331 330 326 331 331 328 326 324 325 324 326 328 330 330 331 332 333 333 334 332 332 333 333 332 333 334 342 344 346 346 345 348 349 352
303 303 304 305 306 317 321 320 324 324 329 329 330 329 330 331 329 327 325 327 325 327 329 331 330 330 330 331 332 333 333 335 334 332 332 333 334 338 342 342 346 345 346 346 350
303 303 303 305 313 316 317 324 324 322 329 329 330 329 328 330 330 328 326 329 329 329 330 331 332 331 331 331 333 333 333 333 333 333 334 333 336 337 339 343 342 347 344 346 348
303 303 303 305 311 315 319 321 320 326 331 329 329 328 328 331 331 330 328 330 331 331 331 331 333 332 331 332 332 334 333 332 333 333 334 336 335 336 338 343 343 343 345 344 345
303 303 303 312 315 315 315 317 323 331 329 329 329 328 328 330 331 331 330 331 331 331 332 332 332 331 331 332 332 333 333 332 332 332 334 333 335 336 340 339 339 342 343 346 344
302 303 304 309 315 314 314 320 330 332 328 329 329 329 328 330 331 331 332 331 332 333 333 333 331 331 332 333 332 332 332 335 335 334 334 335 335 336 333 335 336 337 340 346 346
303 304 311 311 313 313 315 324 332 330 330 329 329 328 329 330 330 330 331 332 332 332 333 333 332 330 331 333 332 332 333 335 340 337 338 336 335 332 335 335 335 336 338 341 347
304 312 313 314 314 314 318 323 331 331 329 329 330 328 328 329 330 330 331 331 332 332 332 333 333 331 331 332 333 333 333 333 334 335 337 337 336 334 332 333 337 340 339 339 347
308 313 314 316 316 315 318 319 326 329 330 329 329 330 330 329 330 330 331 331 331 331 332 334 334 332 331 332 332 333 334 333 333 337 339 336 335 336 336 336 338 339 344 344 349
312 317 317 316 317 317 316 319 321 327 330 329 329 331 330 329 331 331 330 330 331 331 331 332 333 333 332 331 332 332 334 334 334 336 337 338 337 336 335 333 335 336 341 345 350
312 318 318 318 319 317 317 319 320 323 328 329 329 330 332 331 331 332 332 331 330 331 331 331 332 335 333 332 331 332 332 332 334 337 336 335 336 334 335 334 334 335 337 339 345
314 316 317 319 320 318 318 319 320 323 325 326 327 328 330 332 333 331 331 331 330 330 332 332 331 332 336 333 332 332 334 333 334 335 338 341 338 336 335 335 335 335 337 341 344
314 319 317 321 321 322 322 319 320 321 324 324 326 328 329 331 333 333 331 330 330 329 338 333 331 333 333 335 333 333 332 333 334 337 336 337 336 339 338 337 336 337 338 341 346
315 317 324 326 322 320 323 323 320 322 322 323 325 325 328 332 333 333 333 331 329 331 330 330 333 332 331 333 333 332 332 332 334 334 335 335 334 336 341 337 335 334 337 341 345
315 319 320 322 324 327 320 325 323 321 322 322 323 324 325 330 334 333 333 333 332 331 331 330 334 333 332 331 332 331 332 333 332 332 332 333 333 337 337 335 334 333 334 335 339
311 311 314 315 320 324 326 325 325 324 323 324 324 325 324 326 330 334 333 334 334 334 334 332 332 336 336 334 333 333 332 331 331 331 332 334 334 334 336 333 333 334 333 334 334
Wind_Speed
22 21 21 22 22 22 22 20 20 19 14 11 9 8 7 7 7 7 11 3 10 9 9 8 11 12 12 14 13 14 4 8 8 11 15 13 15 14 14 12 8 15 20 24 24
24 23 22 22 23 23 22 22 20 18 13 9 7 7 6 6 9 17 12 11 12 15 10 12 11 11 12 10 7 12 6 9 7 4 16 12 16 12 16 14 14 20 25 28 24
24 24 24 24 24 24 23 23 21 17 8 5 6 5 5 4 10 7 16 16 15 18 13 12 10 10 17 9 5 9 12 5 10 4 16 12 10 8 7 18 16 23 22 23 23
24 25 26 25 25 25 25 24 22 15 7 6 5 4 6 4 2 7 6 17 16 17 14 13 12 14 11 9 6 4 6 2 12 6 9 15 8 18 15 16 19 21 22 22 19
25 25 25 26 26 27 27 24 22 12 7 6 3 7 5 9 4 3 6 16 15 16 16 13 14 15 10 5 8 1 7 5 10 7 9 11 18 12 16 16 20 21 20 19 17
26 26 26 26 27 28 27 25 19 10 6 6 4 11 7 13 4 5 13 16 17 18 17 15 11 8 6 4 7 6 2 5 12 10 9 14 14 15 15 18 20 19 19 18 17
27 28 28 27 27 29 28 24 13 4 2 1 6 5 10 4 4 9 15 18 16 18 13 15 6 10 5 7 1 5 13 9 12 14 10 16 11 19 16 17 18 18 16 16 16
27 29 29 28 27 28 27 20 5 2 2 3 4 6 5 4 7 12 16 15 14 11 11 9 9 14 12 4 9 13 13 15 12 14 11 12 5 17 17 16 16 17 15 15 16
28 29 29 29 28 28 26 13 2 1 3 2 4 9 7 8 13 15 15 16 15 12 10 6 12 15 12 13 14 9 13 8 13 13 13 8 13 17 18 15 15 15 15 15 16
29 29 31 30 28 27 22 7 5 3 3 6 11 7 9 12 18 18 16 14 16 13 10 13 9 12 13 15 13 12 13 10 15 12 9 10 19 16 15 16 15 16 16 16 16
31 30 31 29 29 25 15 5 5 7 14 13 6 9 9 13 16 17 17 16 17 14 15 16 12 16 20 16 10 6 5 8 8 17 13 14 19 16 15 15 15 16 16 16 16
32 32 32 29 29 15 4 8 8 7 9 19 14 14 3 16 14 17 21 16 16 17 20 11 16 18 18 13 8 9 7 8 8 12 11 10 10 20 16 16 17 16 17 17 17
33 33 34 29 24 4 9 15 9 10 8 16 17 17 14 18 13 20 23 20 18 20 20 15 18 14 8 10 12 15 13 10 11 10 13 13 12 13 18 14 17 17 17 18 18
34 33 34 34 6 10 10 0 6 8 6 15 16 14 21 16 16 22 27 16 14 19 15 17 6 8 12 18 18 17 13 1 7 10 14 17 12 18 17 16 16 19 20 18 19
34 35 33 17 17 8 4 5 9 6 6 17 21 14 19 20 15 24 26 17 16 15 13 16 12 15 16 15 18 10 13 10 11 13 15 16 10 11 14 19 15 16 20 21 20
35 34 33 9 11 15 14 9 8 8 12 9 11 18 24 21 18 22 22 22 15 17 15 15 13 16 16 16 15 9 5 6 10 13 14 12 11 11 17 16 17 21 21 21 21
38 32 24 13 6 0 7 9 8 13 13 10 20 22 26 20 22 22 26 24 19 16 16 19 14 13 15 18 11 10 13 9 10 11 12 9 6 8 9 3 1 5 5 21 21
40 31 16 19 10 13 11 11 15 16 23 2 17 22 28 25 24 21 24 23 24 21 15 17 18 22 14 15 14 16 18 12 6 10 10 9 7 5 4 5 3 7 10 11 19
35 16 15 15 16 12 9 15 20 21 16 18 11 15 25 25 24 23 26 25 25 23 21 17 20 21 19 20 18 15 16 16 10 6 9 7 8 4 4 6 2 4 8 16 18
23 16 19 13 13 15 11 22 23 24 21 14 18 18 22 28 27 26 25 25 26 27 21 9 13 22 16 19 17 13 12 11 8 12 8 8 4 4 8 3 2 2 3 8 14
10 5 11 12 13 9 17 25 28 26 9 13 18 17 21 22 26 24 24 19 26 26 21 19 13 18 17 16 15 13 12 10 15 9 11 8 5 15 12 7 2 2 2 5 13
8 7 8 16 11 12 18 28 22 26 17 17 19 18 17 22 25 26 24 25 19 25 26 23 11 13 21 18 20 20 21 19 11 12 7 11 2 14 13 10 3 5 4 3 8
5 10 10 15 10 16 21 25 27 24 19 19 21 16 17 15 19 23 26 23 16 24 24 21 17 14 16 14 11 13 18 18 17 13 11 8 5 7 9 6 6 2 3 4 7
5 5 8 9 14 22 18 23 25 26 17 22 20 21 15 15 17 13 24 16 17 17 5 18 18 18 15 16 16 19 20 16 17 11 13 13 13 13 13 8 6 3 3 5 7
5 7 5 5 14 19 20 16 23 22 18 22 17 19 17 16 18 18 19 17 15 10 13 19 21 19 22 18 19 21 22 20 18 16 15 14 14 5 13 8 5 0 2 5 8
7 6 7 13 15 13 17 17 18 24 22 17 20 20 21 18 17 15 21 16 18 17 16 19 13 20 20 19 20 11 16 18 19 19 16 17 17 6 10 8 3 4 5 7 8
10 14 7 10 12 12 14 18 21 19 18 16 16 20 21 22 17 10 10 14 15 17 20 20 16 15 19 17 17 15 18 18 17 16 15 16 13 5 11 6 4 4 6 8 9
Wind_Direction
360 360 359 358 357 351 348 347 341 335 318 300 290 290 274 260 270 244 241 221 204 204 183 210 224 239 241 255 247 263 272 77 71 90 108 129 92 85 113 111 68 96 135 130 139
360 358 356 354 356 351 345 342 340 334 320 296 282 286 269 252 264 254 231 226 217 190 199 201 217 225 234 234 248 249 75 54 30 42 98 93 93 142 112 112 110 100 116 135 144
1 357 354 352 351 350 345 339 337 332 324 304 294 276 244 224 265 230 196 220 201 191 223 233 264 236 244 240 193 277 82 125 110 72 117 112 122 140 141 116 134 135 138 147 151
1 358 353 350 349 348 344 338 334 328 307 305 293 236 194 225 280 89 178 195 189 190 225 226 234 225 233 203 195 225 91 22 110 150 124 106 131 67 56 89 132 138 144 150 159
356 356 353 349 346 345 343 337 332 322 298 300 269 181 166 215 245 153 171 171 179 195 216 216 225 231 235 155 197 142 109 162 147 167 118 125 94 86 86 102 127 138 149 155 159
355 354 351 348 343 341 341 336 331 314 294 302 216 177 237 247 80 146 165 172 184 199 212 219 227 259 280 210 265 94 191 132 158 140 142 119 120 113 109 121 134 148 155 160 156
351 350 349 346 342 338 339 334 335 335 311 313 169 193 257 317 141 151 165 177 187 199 206 216 248 224 221 195 180 190 213 152 155 159 176 131 167 105 131 135 144 155 161 158 160
351 349 346 344 340 336 336 331 339 51 110 122 178 246 284 153 170 163 170 183 184 217 225 198 231 260 247 67 216 229 251 168 152 172 159 154 83 133 145 144 153 158 159 163 166
349 345 344 342 339 335 332 320 288 154 178 200 241 228 222 150 187 182 179 178 182 194 218 187 241 233 201 224 219 209 206 159 148 192 161 198 170 146 160 156 152 162 163 172 172
347 344 341 339 337 332 330 299 253 187 234 246 266 250 197 202 182 182 187 181 183 182 180 212 220 225 229 221 233 178 233 168 157 192 187 215 130 153 169 163 160 160 169 175 177
345 343 339 338 334 330 326 272 211 196 218 239 203 249 140 136 160 184 181 186 188 190 200 206 217 214 218 231 292 329 241 178 184 164 204 210 147 158 174 172 170 162 172 178 176
344 342 338 334 330 322 297 258 32 346 288 217 243 232 215 166 179 182 180 185 192 199 214 181 226 222 236 229 217 244 215 216 202 151 226 218 198 154 177 193 170 173 177 176 180
344 341 337 331 327 289 261 278 310 325 262 242 207 211 195 201 202 175 187 205 193 207 203 216 210 234 201 216 216 215 226 189 200 186 219 252 197 162 171 204 174 182 178 182 181
341 340 337 333 305 328 277 41 266 299 271 205 198 214 197 203 217 177 200 208 201 212 199 231 178 182 205 209 213 204 228 302 206 189 214 214 243 193 192 195 204 186 177 192 178
338 336 332 339 300 276 359 296 304 246 255 172 176 194 186 196 163 180 195 209 218 216 207 212 184 201 204 214 203 271 153 217 221 222 261 176 256 211 199 187 201 213 190 189 184
334 330 329 334 239 258 285 281 265 231 235 165 141 181 178 201 210 174 189 220 235 216 210 234 203 201 215 208 205 140 201 219 249 253 236 248 216 188 193 201 203 197 203 190 182
330 323 307 271 235 288 276 237 221 237 227 180 180 192 196 190 191 184 189 200 209 209 202 222 193 215 226 203 202 190 206 208 217 219 240 168 242 286 326 37 356 300 284 187 190
327 319 286 237 260 258 248 220 237 219 237 90 189 195 205 193 203 185 193 200 214 211 196 205 200 205 196 207 193 211 220 237 226 235 157 150 231 244 45 32 243 247 255 241 196
329 311 257 249 229 220 225 219 217 237 216 239 218 206 203 206 202 190 203 208 203 216 234 197 224 186 196 218 196 199 237 262 295 273 285 185 159 235 155 243 215 288 240 241 193
323 296 257 197 187 194 222 231 228 240 260 258 238 221 209 208 199 193 202 205 209 214 229 221 215 181 198 210 223 266 193 231 236 274 223 202 164 138 160 141 92 235 230 218 202
288 267 124 174 183 207 219 225 229 248 231 248 242 246 230 210 203 211 212 211 211 202 216 242 238 177 184 212 202 215 234 252 271 225 253 220 193 113 125 107 43 131 107 214 193
292 247 139 177 204 217 223 229 231 226 225 235 271 278 253 222 216 211 215 214 201 215 202 225 209 233 189 205 228 221 212 230 237 228 266 296 42 139 145 145 151 2 113 224 231
278 286 182 207 228 227 223 235 235 232 232 238 235 244 257 261 237 218 230 216 182 216 204 205 234 212 220 190 207 238 244 220 221 253 251 243 190 129 128 156 159 305 275 201 228
277 261 208 203 254 270 248 218 229 232 232 235 233 240 231 246 252 233 215 208 182 213 143 203 222 232 223 200 202 209 234 234 251 224 230 227 240 174 179 190 135 197 249 251 220
245 256 23 233 222 236 248 246 224 221 211 242 237 241 236 233 230 218 235 172 192 146 192 213 220 221 242 251 215 203 208 225 222 240 258 270 285 353 132 160 132 117 230 256 242
289 325 340 291 287 284 233 244 249 225 221 215 233 224 236 248 243 211 237 183 193 174 214 211 214 234 244 237 256 239 253 214 223 228 243 257 262 104 117 118 175 207 236 252 246
330 296 264 286 263 245 242 236 238 253 224 225 216 226 239 223 257 321 305 232 187 193 212 206 222 212 236 231 240 245 247 255 257 260 235 252 276 243 134 163 201 258 293 297 283